Powrót do katalogu

STARLINK-30100

AktywnyŁącznośćVLEO
NORAD 57623·PAYLOAD·🇺🇸 United States

Wystrzelony Aug 11, 2023 z Cape Canaveral Space Force Station

Loading…

Następne Przeloty (najbliższe 24 godziny)

TLE

ŚwieżeSource: CelesTrak SupGP

Epoka: Sep 14, 2026, 21:59 UTC

1 57623C 23119X   26257.91645833  .00008314  00000+0  30124-3 0  2575
2 57623  42.9994  92.9572 0001351 273.9551 164.9796 15.27563040    14

Śledź STARLINK-30100 w czasie rzeczywistym z AllMySat

Download on the App Store